Погода в Мокегуа

Перу     17°11′35″S   70°56′20″W
темп.,
°C
ветер,
м/с
пор.,
м/с
влажн.,
%
обл.,
%
осадки,
мм/ч
давл.,
гПа
погр.,
м
27 ноября, сб
сб2701:00+17ююв1160100 0.1 101382
04:00+16ююв116391 0.0 101340
07:00+18ююз1157100 0.0 1014182
10:00+22ююз434596 0.0 1013712
13:00+24ю643896 0.0 10111262
16:00+21ю544617 0.0 1012849
19:00+18ю115699 0.0 1014241
22:00+17ююз116270 0.0 101483
28 ноября, вс
вс2801:00+15ю117080 0.0 101376
04:00+14ю1180100 0.0 101371
07:00+16ю1069100 0.0 1014185
10:00+21ююз4343100 0.0 1013687
13:00+24ю6433100 0.0 10111265
16:00+22ю5443100 0.0 1011940
19:00+17ю32624 0.0 1014228
22:00+15ю21756 0.0 1016129
29 ноября, пн
пн2901:00+15ю117396 0.0 101345
04:00+14ююз118093 0.0 101440
07:00+16ю1167100 0.0 1015192
10:00+22ююз424383 0.0 1013809
13:00+25ю6333100 0.0 10111542
16:00+22ю6444100 0.0 10121047
19:00+18ю22595 0.0 1015248
22:00+16ю116988 0.0 101688
30 ноября, вт
вт3001:00+15ю017312 0.0 101440
04:00+15ююв0174100 0.0 101411
07:00+18ююз115497 0.0 1014240
10:00+23ююз433641 0.0 1013909
13:00+25ю753384 0.0 10111576
16:00+22ююв754557 0.0 10111047
19:00+18ю32625 0.0 1014249
22:00+16ююв1169100 0.0 101595
1 декабря, ср
ср101:00+16ююз1167100 0.0 101242
04:00+16юз016954 0.0 101211
07:00+18юз11565 0.0 1013244
10:00+23ююз433597 0.0 1012877
13:00+25ю853499 0.0 10101442
16:00+22ю6543100 0.0 10111065
19:00+18ю2259100 0.0 1014276
22:00+16ююз1167100 0.0 1015134